FLOCK 3P'-4

Last updated on Wed Feb 14 2018 16:20:56 GMT+0000 (Coordinated Universal Time)

1 43122U 18004M 18044.81376943 .00000618 00000-0 30127-4 0 9995 2 43122 97.5509 107.0726 0011092 159.6626 200.5053 15.22070847 4948
UTC large
Height (km)
Speed (km/s)
/
Latitude / Longitude
Inclination (degrees)
Orbital Period (minutes)
Azimuth
Elevation
Range (km)
Doppler Factor

Next 0 passes for location: London (51.5072 / 0.1276)

Sorry there are no passes over London.
FLOCK 3P'-4